CW2927 Weather Reports


Display with metric or nautical units.
time (UTC)temp
F
wind
direction
speed
MPH
gust
MPH
rain 1hr
in
rain 24hr
in
rain mn
in
humidity
%
barometer
mb
20171211020705 22 259 0.0 0.0 0.00 0.00 0.00 84 1008.8
20171211020204 22 259 0.0 0.0 0.00 0.00 0.00 84 1008.9
20171211014705 22 259 0.0 0.0 0.00 0.00 0.00 83 1008.9
20171211014205 22 259 0.0 0.0 0.00 0.00 0.00 83 1009.0
20171211012705 22 259 0.0 0.0 0.00 0.00 0.00 82 1008.7
20171211012205 22 259 0.0 0.0 0.00 0.00 0.00 82 1008.8
20171211010704 22 259 0.0 0.0 0.00 0.00 0.00 80 1008.8
20171211010205 22 259 0.0 0.0 0.00 0.00 0.00 80 1008.8
20171211004705 22 259 0.0 0.0 0.00 0.00 0.00 79 1008.8
20171211004205 23 259 0.0 3.0 0.00 0.00 0.00 79 1008.8
20171211002704 23 266 0.0 0.0 0.00 0.00 0.00 79 1008.8
20171211002204 23 261 0.0 3.0 0.00 0.00 0.00 79 1008.8
20171211000704 23 242 1.0 3.0 0.00 0.00 0.00 79 1008.8
20171211000205 23 248 1.0 3.0 0.00 0.00 0.00 79 1008.9
20171210234704 22 251 2.0 5.0 0.00 0.00 0.00 79 1008.7
20171210234205 22 244 1.0 6.0 0.00 0.00 0.00 79 1008.7
20171210232704 23 247 1.0 6.0 0.00 0.00 0.00 79 1008.8
20171210232205 23 249 2.0 6.0 0.00 0.00 0.00 79 1008.7
20171210230704 23 247 3.0 7.0 0.00 0.00 0.00 79 1008.7
20171210230204 23 262 1.0 6.0 0.00 0.00 0.00 79 1008.6
20171210224705 23 281 1.0 3.0 0.00 0.00 0.00 78 1008.4
20171210224205 24 279 2.0 10.0 0.00 0.00 0.00 78 1008.4
20171210222706 24 272 2.0 10.0 0.00 0.00 0.00 79 1008.5
20171210222204 24 262 3.0 10.0 0.00 0.00 0.00 80 1008.5
20171210220704 24 282 4.0 12.0 0.00 0.00 0.00 80 1008.2
20171210220205 24 265 5.0 10.0 0.00 0.00 0.00 81 1008.2
20171210214704 24 297 4.0 12.0 0.00 0.00 0.00 81 1008.1
20171210214204 24 267 6.0 12.0 0.00 0.00 0.00 82 1008.0
20171210212704 25 278 3.0 12.0 0.00 0.00 0.00 84 1007.8
20171210212205 25 283 2.0 9.0 0.00 0.00 0.00 85 1007.7
20171210210704 25 276 6.0 10.0 0.00 0.00 0.00 85 1007.4
20171210210204 25 274 2.0 10.0 0.00 0.00 0.00 85 1007.3
20171210204705 26 276 5.0 12.0 0.00 0.00 0.00 84 1007.0
20171210204204 26 279 5.0 17.0 0.00 0.00 0.00 82 1007.0
20171210202704 27 294 10.0 20.0 0.00 0.00 0.00 73 1006.7
20171210202204 27 301 10.0 20.0 0.00 0.00 0.00 74 1006.5
20171210200704 27 277 7.0 16.0 0.00 0.00 0.00 77 1006.1
20171210200204 27 297 13.0 20.0 0.00 0.00 0.00 78 1006.0
20171210194704 28 283 7.0 15.0 0.00 0.00 0.00 82 1005.6
20171210194205 28 293 7.0 15.0 0.00 0.00 0.00 82 1005.4
20171210192705 28 265 10.0 20.0 0.00 0.00 0.00 83 1005.1
20171210192205 28 266 6.0 21.0 0.00 0.00 0.00 83 1005.1
20171210190704 28 270 9.0 16.0 0.00 0.00 0.00 83 1004.8
20171210190204 28 271 7.0 21.0 0.00 0.00 0.00 83 1004.7
20171210184705 29 270 9.0 18.0 0.00 0.00 0.00 84 1004.2
20171210184204 29 276 9.0 20.0 0.00 0.00 0.00 85 1004.2
20171210182704 29 296 10.0 18.0 0.00 0.00 0.00 86 1003.9
20171210182204 29 284 9.0 21.0 0.00 0.00 0.00 87 1003.8
20171210180705 29 273 8.0 17.0 0.00 0.00 0.00 90 1003.6
20171210180204 29 271 5.0 15.0 0.00 0.00 0.00 90 1003.5
20171210174704 29 284 7.0 17.0 0.00 0.00 0.00 91 1003.3
20171210174205 29 266 6.0 20.0 0.00 0.00 0.00 91 1003.2
20171210172705 29 292 7.0 13.0 0.00 0.00 0.00 90 1003.2
20171210172205 30 295 7.0 20.0 0.00 0.00 0.00 91 1003.1
20171210170704 30 285 5.0 10.0 0.00 0.00 0.00 91 1003.1
20171210170205 29 262 5.0 16.0 0.00 0.00 0.00 91 1003.1
20171210164704 29 264 7.0 12.0 0.00 0.00 0.00 91 1003.1
20171210164204 29 256 4.0 13.0 0.00 0.00 0.00 91 1003.1
20171210162704 29 262 8.0 13.0 0.00 0.00 0.00 92 1003.3
20171210162204 29 251 7.0 15.0 0.00 0.00 0.00 92 1003.3
20171210160704 29 235 6.0 10.0 0.00 0.00 0.00 92 1003.3
20171210160204 29 247 6.0 12.0 0.00 0.00 0.00 92 1003.4
20171210154704 28 234 6.0 12.0 0.00 0.00 0.00 92 1003.4
20171210154204 28 241 6.0 14.0 0.00 0.00 0.00 92 1003.5
20171210152704 28 245 6.0 9.0 0.00 0.00 0.00 92 1003.6
20171210152204 28 210 4.0 10.0 0.00 0.00 0.00 92 1003.6
20171210150705 28 240 5.0 9.0 0.00 0.00 0.00 92 1003.6
20171210150204 27 230 4.0 10.0 0.00 0.00 0.00 92 1003.7
20171210144704 27 237 6.0 12.0 0.00 0.00 0.00 91 1003.7
20171210144204 27 231 4.0 9.0 0.00 0.00 0.00 91 1003.7
20171210142704 27 218 4.0 10.0 0.00 0.00 0.00 91 1003.8
20171210142204 27 240 3.0 12.0 0.00 0.00 0.00 91 1003.8
20171210140704 26 236 3.0 8.0 0.00 0.00 0.00 90 1003.7
20171210140204 26 220 6.0 10.0 0.00 0.00 0.00 90 1003.8
20171210134704 26 235 4.0 7.0 0.00 0.00 0.00 90 1003.9
20171210134204 26 230 3.0 8.0 0.00 0.00 0.00 90 1003.9
20171210132704 26 236 4.0 8.0 0.00 0.00 0.00 90 1003.9
20171210132204 26 234 2.0 7.0 0.00 0.00 0.00 89 1003.9
20171210130704 25 220 3.0 7.0 0.00 0.00 0.00 90 1003.8
20171210130204 25 224 3.0 6.0 0.00 0.00 0.00 90 1003.7
20171210124704 25 215 2.0 7.0 0.00 0.00 0.00 89 1003.7
20171210124204 25 240 3.0 5.0 0.00 0.00 0.00 89 1003.8
20171210122704 25 238 2.0 3.0 0.00 0.00 0.00 89 1003.9
20171210122204 25 234 3.0 6.0 0.00 0.00 0.00 89 1003.9
20171210120704 25 226 1.0 5.0 0.00 0.00 0.00 89 1003.8
20171210120204 25 219 0.0 3.0 0.00 0.00 0.00 89 1003.9
20171210114704 24 217 0.0 3.0 0.00 0.00 0.00 89 1003.9
20171210114204 24 217 1.0 3.0 0.00 0.00 0.00 88 1003.9
20171210112704 25 116 0.0 0.0 0.00 0.00 0.00 88 1003.9
20171210112204 25 90 0.0 0.0 0.00 0.00 0.00 88 1003.9
20171210110704 25 88 0.0 0.0 0.00 0.00 0.00 88 1003.9
20171210110204 25 88 0.0 0.0 0.00 0.00 0.00 88 1003.9
20171210104704 25 86 0.0 0.0 0.00 0.00 0.00 88 1003.9
20171210104204 25 86 0.0 0.0 0.00 0.00 0.00 88 1004.0
20171210102704 25 86 0.0 0.0 0.00 0.00 0.00 88 1003.9
20171210102204 25 86 0.0 0.0 0.00 0.00 0.00 87 1003.9
20171210100704 25 86 0.0 0.0 0.00 0.00 0.00 87 1003.8
20171210100204 25 86 0.0 0.0 0.00 0.00 0.00 87 1003.9
20171210094704 25 86 0.0 0.0 0.00 0.00 0.00 87 1003.9
20171210094204 25 86 0.0 3.0 0.00 0.00 0.00 87 1003.9
20171210092704 26 86 0.0 0.0 0.00 0.00 0.00 86 1003.9
20171210092204 26 86 0.0 0.0 0.00 0.00 0.00 86 1003.9
20171210090704 26 86 0.0 0.0 0.00 0.00 0.00 86 1004.0
20171210090204 26 86 0.0 0.0 0.00 0.00 0.00 86 1004.1
20171210084704 26 86 0.0 0.0 0.00 0.00 0.00 86 1004.2
20171210084204 26 86 0.0 0.0 0.00 0.00 0.00 86 1004.2
20171210082704 26 86 0.0 0.0 0.00 0.00 0.00 86 1004.4
20171210082204 26 86 0.0 0.0 0.00 0.00 0.00 86 1004.3
20171210080704 26 86 0.0 0.0 0.00 0.00 0.00 86 1004.5
20171210080214 26 86 0.0 0.0 0.00 0.00 0.00 86 1004.6
20171210074704 26 86 0.0 0.0 0.00 0.00 0.00 86 1004.6
20171210074204 26 86 0.0 0.0 0.00 0.00 0.00 86 1004.7
20171210072704 26 86 0.0 0.0 0.00 0.00 0.00 86 1004.6
20171210072204 26 86 0.0 0.0 0.00 0.00 0.00 86 1004.7
20171210070704 26 86 0.0 0.0 0.00 0.00 0.00 86 1004.8
20171210070205 26 86 0.0 3.0 0.00 0.00 0.00 86 1004.8
20171210064704 26 86 0.0 0.0 0.00 0.00 0.00 86 1004.8
20171210064204 26 86 0.0 0.0 0.00 0.00 0.00 86 1004.9
20171210062704 26 86 0.0 0.0 0.00 0.00 0.00 85 1005.1
20171210062204 26 86 0.0 0.0 0.00 0.00 0.00 85 1005.2
20171210060704 26 86 0.0 0.0 0.00 0.00 0.00 85 1005.4
20171210060204 26 86 0.0 5.0 0.00 0.00 0.00 85 1005.3
20171210054709 26 86 1.0 3.0 0.00 0.00 0.00 84 1005.4
20171210054209 26 86 1.0 3.0 0.00 0.00 0.00 84 1005.4
20171210052709 27 86 0.0 0.0 0.00 0.00 0.00 84 1005.6
20171210052209 27 86 0.0 0.0 0.00 0.00 0.00 83 1005.7
20171210050709 27 86 2.0 5.0 0.00 0.00 0.00 83 1005.7
20171210050209 27 86 0.0 5.0 0.00 0.00 0.00 83 1005.8
20171210044709 27 83 1.0 5.0 0.00 0.00 0.00 82 1005.9
20171210044209 27 77 0.0 3.0 0.00 0.00 0.00 82 1006.0
20171210042708 27 76 3.0 5.0 0.00 0.00 0.00 82 1006.4
20171210042209 27 78 1.0 6.0 0.00 0.00 0.00 82 1006.4
20171210040709 28 61 0.0 8.0 0.00 0.00 0.00 81 1006.6
20171210040209 28 69 3.0 7.0 0.00 0.00 0.00 81 1006.7
20171210034709 28 66 3.0 3.0 0.00 0.00 0.00 81 1006.9
20171210034208 28 61 0.0 7.0 0.00 0.00 0.00 81 1006.8
20171210032709 28 64 3.0 7.0 0.00 0.00 0.00 81 1007.0
20171210032209 28 73 3.0 7.0 0.00 0.00 0.00 81 1007.0
20171210030709 28 71 3.0 5.0 0.00 0.00 0.00 81 1007.1
20171210030208 28 61 4.0 7.0 0.00 0.00 0.00 81 1007.1
20171210024709 28 62 3.0 5.0 0.00 0.00 0.00 81 1007.3
20171210024209 28 63 2.0 7.0 0.00 0.00 0.00 81 1007.2
20171210022709 28 66 2.0 3.0 0.00 0.00 0.00 80 1007.6
20171210022209 28 59 4.0 7.0 0.00 0.00 0.00 80 1007.8